[[{"header":{"parameterUnit":"m.s-1","parameterCategory":1,"la1":30.2991,"la2":30.254,"lo1":-89.0895,"lo2":-89.0444,"dy":0.0017,"dx":0.0017,"nx":28,"ny":28,"refTime":"2025-06-13T21:00:00:Z","depth":0,"parameterNumber":2,"parameterNumberName":"U-component_of_WINDS"},"data":[0,0,0,0,0,0,0,0,0,0,0,0,0,0,0,0,0,0,0,0,0,0,0,0,0,0,0,0,0,0,0,0,0,0,0,0,0,0,0,0,0,0,0,0,0,0,0,0,0,0,0,0,0,0,0,0,0,0,1.6901,1.6905,0,1.7315,1.732,1.7324,1.751,1.751,1.7509,1.7509,1.7939,1.795,1.7962,0,0,0,0,0,0,0,0,0,0,0,0,0,1.6273,1.6284,1.69,1.6906,1.6911,1.7314,1.732,1.7326,1.751,1.751,1.7509,1.7509,1.7935,1.7949,1.7963,0,0,0,0,0,0,0,0,0,0,0,0,0,1.6602,1.6287,1.69,1.7051,1.7069,1.7313,1.732,1.7327,1.7511,1.751,1.7509,1.7508,1.793,1.7948,1.7965,1.8091,0,0,1.802,1.8028,0,0,0,0,0,0,0,0,1.6584,1.6625,1.7024,1.7041,1.7062,1.736,1.7257,1.7583,1.7511,1.7343,1.7509,1.7508,1.7747,1.778,1.786,1.8111,1.813,1.8022,1.8032,1.804,1.8045,0,0,0,0,0,0,0,1.6561,1.6609,1.7065,1.7029,1.7053,1.71,1.7146,1.732,1.7545,1.7358,1.7372,1.7418,1.7758,1.7842,1.7871,1.8136,1.8021,1.8037,1.8048,1.8055,1.8511,1.8512,0,0,0,0,0,0,1.6512,1.6588,1.7052,1.7077,1.6816,1.7112,1.7164,1.7265,1.7543,1.7585,1.7419,1.7425,1.7812,1.785,1.7887,1.8053,1.804,1.8057,1.8067,1.851,1.8511,1.8513,0,0,0,0,0,0,1.6498,1.6552,1.7035,1.6837,1.6902,1.7124,1.7236,1.7274,1.7359,1.7589,1.7631,1.7463,1.7813,1.7862,1.8039,1.807,1.8065,1.8081,1.8508,1.851,1.8512,1.8384,0,0,0,0,0,0,1.6479,1.6546,1.6595,1.6836,1.6912,1.7177,1.7238,1.7282,1.7388,1.7401,1.7642,1.7681,1.7816,1.8011,1.8056,1.8095,1.8095,1.8506,1.8509,1.8511,1.8386,1.8381,1.8377,0,0,0,0,0,1.6456,1.6543,1.6596,1.6651,1.6978,1.7179,1.7222,1.7374,1.739,1.7442,1.759,1.7674,1.8059,1.8027,1.808,1.8124,1.8505,1.8508,1.8511,1.8388,1.8382,1.8377,0,0,0,0,0,0,1.6302,1.6578,1.664,1.6807,1.6968,1.721,1.728,1.7362,1.7523,1.7529,1.7712,1.7765,1.7925,1.8043,1.8003,1.826,1.8289,1.8303,1.8178,1.8174,1.8169,1.8138,1.811,0,0,0,0,0,1.6287,1.6426,1.666,1.6786,1.6863,1.7056,1.715,1.7253,1.7427,1.7497,1.7658,1.7826,1.7985,1.8086,1.8245,1.8404,1.8459,1.846,1.8455,1.845,1.8461,1.8553,1.8557,1.8523,1.8523,1.8523,0,0,1.6259,1.6427,1.6504,1.6759,1.6896,1.7036,1.7113,1.7259,1.7366,1.752,1.7696,1.7819,1.8019,1.8186,1.8269,1.829,1.8482,1.8454,1.8448,1.8462,1.8557,1.856,1.8562,1.8525,1.8525,1.8525,0,0,1.6279,1.6419,1.6539,1.6674,1.6878,1.7007,1.7034,1.7264,1.7351,1.753,1.7648,1.7779,1.8048,1.8186,1.829,1.8359,1.8443,1.8406,1.8383,1.8471,1.8474,1.8477,1.8502,1.8509,1.8415,1.8415,1.8415,0,1.6219,1.6434,1.6591,1.673,1.6839,1.6982,1.7105,1.7228,1.7475,1.7548,1.7567,1.7907,1.8052,1.8253,1.827,1.835,1.8389,1.838,1.846,1.8465,1.847,1.8497,1.8506,1.8409,1.841,1.8411,1.8411,0,1.635,1.6497,1.657,1.6801,1.6919,1.7049,1.7226,1.7326,1.7417,1.7543,1.7724,1.7901,1.8098,1.8154,1.8246,1.8369,1.8375,1.8424,1.8458,1.8465,1.8493,1.8504,1.8401,1.8403,1.8405,1.8406,0,0,1.6287,1.6601,1.6626,1.6732,1.6967,1.7086,1.7222,1.7413,1.7495,1.766,1.778,1.8003,1.805,1.8169,1.8277,1.8354,1.8398,1.8395,1.8403,1.839,1.8545,1.8507,1.8516,1.8454,1.8456,1.8458,1.8528,0,1.634,1.659,1.6733,1.6924,1.7063,1.7199,1.7319,1.7476,1.7597,1.7733,1.7868,1.8024,1.8073,1.8146,1.8228,1.8374,1.8432,1.8372,1.8569,1.8574,1.8516,1.853,1.8491,1.8549,1.854,1.8542,1.8544,0,1.6436,1.6595,1.6798,1.7017,1.7081,1.7185,1.7371,1.7498,1.768,1.7763,1.7893,1.8001,1.8152,1.8171,1.8382,1.8338,1.8427,1.8511,1.8517,1.8543,1.856,1.8557,1.8571,1.8579,1.8562,1.8561,1.8559,0,1.637,1.6635,1.6792,1.6879,1.7137,1.7207,1.7318,1.7499,1.7604,1.7767,1.7837,1.8015,1.8113,1.8249,1.8403,1.8402,1.8599,1.8631,1.8673,1.8669,1.871,1.8705,1.8739,1.8764,1.8764,1.8764,1.8764,0,1.6415,1.6534,1.6765,1.6861,1.6999,1.7163,1.7296,1.7418,1.7577,1.7701,1.783,1.7943,1.8138,1.8276,1.8397,1.8554,1.8597,1.8669,1.87,1.8659,1.8649,1.8721,1.8721,1.8767,1.8766,1.8765,1.8765,0,1.6365,1.6524,1.6704,1.6932,1.6993,1.7084,1.7281,1.738,1.7506,1.7661,1.7707,1.7906,1.8075,1.824,1.8468,1.8549,1.8705,1.8746,1.8642,1.866,1.8693,1.8688,1.8775,1.8795,1.8804,1.8803,1.8803,0,1.6384,1.6479,1.6716,1.6807,1.6914,1.7059,1.7166,1.7331,1.7438,1.765,1.7724,1.7901,1.8052,1.8316,1.8482,1.8657,1.8704,1.8722,1.8731,1.8686,1.8705,1.8698,1.8709,1.8717,1.8716,1.8716,1.8715,0,1.64,1.6473,1.6621,1.6797,1.692,1.7066,1.7218,1.7285,1.748,1.7593,1.7765,1.7882,1.8112,1.8288,1.8481,1.8598,1.869,1.871,1.873,1.8689,1.8625,1.8661,1.863,1.8708,1.8709,1.871,1.871,1.871,1.6387,1.6477,1.6657,1.6818,1.6948,1.7086,1.719,1.7328,1.7474,1.7673,1.7762,1.7936,1.8116,1.8384,1.8499,1.8639,1.8663,1.869,1.8698,1.8702,1.8693,1.8601,1.8675,1.8675,1.8676,1.8676,1.8677,0,1.641,1.6532,1.6678,1.6884,1.701,1.7082,1.7253,1.7354,1.7504,1.7663,1.7808,1.8006,1.8176,1.8354,1.8535,1.8613,1.8659,1.8655,1.8652,1.8677,1.8661,1.8627,1.8614,1.8614,1.8614,1.8614,1.8614,1.8614,1.6437,1.6593,1.6687,1.691,1.7033,1.7202,1.7293,1.7421,1.7549,1.7763,1.7904,1.8018,1.8186,1.8379,1.8539,1.8587,1.8648,1.8632,1.8692,1.8674,1.8678,1.8682,1.8651,1.8643,1.8643,1.8697,1.8697,1.8697]},{"header":{"parameterUnit":"m.s-1","parameterCategory":1,"la1":30.2991,"la2":30.254,"lo1":-89.0895,"lo2":-89.0444,"dy":0.0017,"dx":0.0017,"nx":28,"ny":28,"refTime":"2025-06-13T21:00:00:Z","depth":0,"parameterNumber":3,"parameterNumberName":"V-component_of_WINDS"},"data":[0,0,0,0,0,0,0,0,0,0,0,0,0,0,0,0,0,0,0,0,0,0,0,0,0,0,0,0,0,0,0,0,0,0,0,0,0,0,0,0,0,0,0,0,0,0,0,0,0,0,0,0,0,0,0,0,0,0,2.3005,2.3006,0,2.3143,2.3145,2.3146,2.3262,2.3263,2.3264,2.3266,2.3411,2.3414,2.3417,0,0,0,0,0,0,0,0,0,0,0,0,0,2.2846,2.2848,2.3004,2.3006,2.3008,2.3143,2.3145,2.3146,2.3262,2.3263,2.3265,2.3266,2.3411,2.3414,2.3417,0,0,0,0,0,0,0,0,0,0,0,0,0,2.2942,2.2849,2.3004,2.3082,2.309,2.3142,2.3145,2.3147,2.3261,2.3263,2.3265,2.3267,2.3409,2.3413,2.3417,2.3406,0,0,2.343,2.3432,0,0,0,0,0,0,0,0,2.2937,2.2948,2.3069,2.3076,2.3086,2.3187,2.3142,2.3234,2.3261,2.3196,2.3266,2.3268,2.3336,2.3346,2.3368,2.3412,2.3419,2.343,2.3433,2.3435,2.3436,0,0,0,0,0,0,0,2.293,2.2943,2.306,2.307,2.3081,2.3111,2.3127,2.316,2.3254,2.3202,2.3211,2.3225,2.3341,2.3364,2.3372,2.3421,2.343,2.3434,2.3436,2.3438,2.3464,2.3463,0,0,0,0,0,0,2.2911,2.2937,2.3055,2.3064,2.3014,2.3113,2.313,2.3153,2.3254,2.3271,2.3224,2.323,2.3356,2.3367,2.3378,2.3371,2.3435,2.3438,2.3441,2.3466,2.3464,2.3462,0,0,0,0,0,0,2.2907,2.292,2.305,2.3003,2.3021,2.3113,2.3138,2.3154,2.3177,2.327,2.3288,2.3229,2.3358,2.3372,2.3398,2.3377,2.344,2.3444,2.3468,2.3466,2.3463,2.3356,0,0,0,0,0,0,2.2902,2.2918,2.2913,2.3001,2.3023,2.3065,2.3136,2.3156,2.3184,2.3194,2.328,2.3296,2.336,2.3391,2.3402,2.3384,2.3447,2.347,2.3467,2.3464,2.3362,2.335,2.334,0,0,0,0,0,2.2896,2.2878,2.2912,2.2926,2.3019,2.3064,2.3076,2.3149,2.3181,2.3178,2.3238,2.3294,2.3378,2.3393,2.3406,2.3389,2.3472,2.3468,2.3464,2.3367,2.3352,2.334,0,0,0,0,0,0,2.2786,2.2891,2.293,2.294,2.2992,2.3083,2.3081,2.3131,2.3176,2.3184,2.3273,2.3292,2.3308,2.3352,2.3366,2.3384,2.3433,2.3431,2.3354,2.3341,2.3331,2.3319,2.3451,0,0,0,0,0,2.2762,2.2788,2.288,2.288,2.2904,2.2987,2.301,2.3061,2.3119,2.3142,2.3204,2.326,2.3299,2.3323,2.3364,2.337,2.3391,2.3365,2.3354,2.3345,2.3342,2.3349,2.3338,2.3449,2.3449,2.3449,0,0,2.2715,2.2776,2.2787,2.286,2.2906,2.2932,2.3005,2.303,2.3052,2.3147,2.3174,2.3222,2.329,2.3305,2.3316,2.3342,2.3316,2.334,2.3331,2.3334,2.3344,2.3333,2.3324,2.3447,2.3447,2.3447,0,0,2.2641,2.269,2.2695,2.274,2.2809,2.2865,2.2866,2.2951,2.2985,2.3014,2.3087,2.3115,2.318,2.3226,2.3257,2.3203,2.3257,2.3215,2.3157,2.3163,2.3154,2.3147,2.3128,2.312,2.3212,2.3212,2.3212,0,2.2574,2.2615,2.2692,2.2713,2.2743,2.283,2.2837,2.2878,2.2957,2.2977,2.3006,2.3091,2.3143,2.317,2.3157,2.318,2.3186,2.3204,2.3149,2.3143,2.3137,2.312,2.3112,2.3206,2.3207,2.3207,2.3208,0,2.2529,2.2556,2.2553,2.2626,2.2656,2.267,2.2751,2.2773,2.2823,2.2876,2.2906,2.2972,2.3028,2.3039,2.3088,2.3074,2.3089,2.3132,2.3183,2.3119,2.3105,2.3099,2.3198,2.32,2.3202,2.3203,0,0,2.2387,2.2504,2.2501,2.2536,2.2619,2.2643,2.2662,2.2716,2.2733,2.2786,2.2805,2.2859,2.29,2.2936,2.2992,2.2997,2.295,2.304,2.3043,2.3021,2.294,2.2905,2.2896,2.2986,2.2986,2.2985,2.2934,0,2.2327,2.2363,2.2434,2.2449,2.2476,2.256,2.2577,2.2631,2.2682,2.2715,2.2773,2.2809,2.2861,2.2883,2.2892,2.2953,2.2935,2.2958,2.3006,2.3006,2.2984,2.2888,2.2852,2.28,2.2928,2.2927,2.2927,0,2.226,2.2306,2.2323,2.2405,2.242,2.2433,2.2489,2.2518,2.2582,2.262,2.266,2.2721,2.2748,2.2795,2.2833,2.2848,2.2872,2.2905,2.2905,2.2911,2.2961,2.2891,2.2785,2.2777,2.2919,2.2919,2.292,0,2.2154,2.2221,2.224,2.2267,2.2364,2.2372,2.2413,2.2479,2.2507,2.2557,2.2577,2.2629,2.2658,2.2698,2.2773,2.28,2.2803,2.2856,2.2835,2.2833,2.2831,2.283,2.2726,2.2848,2.2848,2.2848,2.2848,0,2.2078,2.2085,2.2194,2.2205,2.2216,2.2299,2.2309,2.2358,2.2416,2.244,2.2518,2.2539,2.2636,2.2669,2.2728,2.2751,2.2764,2.2795,2.2811,2.2788,2.2783,2.2804,2.2809,2.2846,2.2847,2.2847,2.2847,0,2.1961,2.2034,2.206,2.215,2.2173,2.2177,2.2255,2.2271,2.2327,2.2356,2.2368,2.2458,2.2501,2.2579,2.2645,2.2685,2.2696,2.2723,2.2673,2.2682,2.2656,2.2657,2.2561,2.2553,2.268,2.2679,2.2678,0,2.1906,2.1914,2.2004,2.2025,2.2063,2.2096,2.2125,2.2208,2.2236,2.231,2.2317,2.2366,2.241,2.2475,2.2547,2.2598,2.2627,2.259,2.2635,2.2612,2.2626,2.2623,2.2625,2.2579,2.2577,2.2575,2.2574,0,2.1802,2.1838,2.1876,2.1928,2.196,2.2005,2.2054,2.2067,2.2163,2.219,2.2234,2.2268,2.2335,2.2384,2.2445,2.2491,2.2548,2.256,2.2558,2.2533,2.2504,2.2519,2.2644,2.2561,2.2562,2.2563,2.2564,2.2565,2.1714,2.1725,2.179,2.1831,2.1876,2.1921,2.1939,2.1998,2.2036,2.2096,2.2145,2.2185,2.2252,2.2341,2.2383,2.2417,2.2444,2.2441,2.244,2.2437,2.2428,2.2499,2.2429,2.2429,2.243,2.243,2.2431,0,2.1613,2.166,2.1696,2.1762,2.1794,2.1846,2.1903,2.1927,2.1961,2.2018,2.2059,2.2111,2.2159,2.2235,2.2289,2.2302,2.233,2.2314,2.2313,2.2322,2.2401,2.2397,2.229,2.229,2.229,2.229,2.229,2.229,2.1564,2.1584,2.1629,2.1673,2.1721,2.176,2.1789,2.1831,2.1876,2.193,2.1969,2.2019,2.2084,2.2144,2.219,2.2212,2.2228,2.2202,2.2232,2.2304,2.2317,2.2329,2.2326,2.2206,2.2205,2.2151,2.215,2.215]}]]